,,Stat6,,Stat2,,Stat8,,Stat9,,Stat10,,Wind1,,Wind1,
time,status,PA1M_AVG,status,PR1M_SUM,status,RH1M_AVG,status,SR1M_AVG,status,TA1M_AVG,status,W1dAve1m,status,W1sAve1m,
2004-11-04, 00:00:00,VALID,918.384,VALID,0.6,VALID,100,VALID,0,VALID,19.898,VALID,120,VALID,1.62091,
2004-11-04, 00:01:00,VALID,918.377,VALID,0.6,VALID,100,VALID,0,VALID,19.8751,VALID,111,VALID,1.39773,
2004-11-04, 00:02:00,VALID,918.372,VALID,0.4,VALID,100,VALID,-0.0169808,VALID,19.8784,VALID,110,VALID,0.992898,
2004-11-04, 00:03:00,VALID,918.366,VALID,0.4,VALID,100,VALID,0.0169808,VALID,19.8885,VALID,75,VALID,0.752148,
2004-11-04, 00:04:00,VALID,918.375,VALID,0,VALID,100,VALID,-0.0169808,VALID,19.8913,VALID,73,VALID,0.822852,
2004-11-04, 00:05:00,VALID,918.362,VALID,0.2,VALID,100,VALID,0,VALID,19.898,VALID,71,VALID,1.14735,
2004-11-04, 00:06:00,VALID,918.356,VALID,0,VALID,100,VALID,0,VALID,19.9044,VALID,93,VALID,1.01097,
2004-11-04, 00:07:00,VALID,918.351,VALID,0.2,VALID,100,VALID,0,VALID,19.9069,VALID,109,VALID,1.62049,
2004-11-04, 00:08:00,VALID,918.334,VALID,0,VALID,100,VALID,0,VALID,19.9397,VALID,95,VALID,1.03849,
2004-11-04, 00:09:00,VALID,918.295,VALID,0.2,VALID,100,VALID,-0.0169808,VALID,19.9529,VALID,95,VALID,1.41946,
2004-11-04, 00:10:00,VALID,918.27,VALID,0,VALID,100,VALID,0,VALID,19.9591,VALID,83,VALID,0.851004,
2004-11-04, 00:11:00,VALID,918.239,VALID,0,VALID,100,VALID,0.0169808,VALID,19.9621,VALID,117,VALID,1.19113,
2004-11-04, 00:12:00,VALID,918.222,VALID,0.2,VALID,100,VALID,0,VALID,19.9688,VALID,133,VALID,1.14444,
2004-11-04, 00:13:00,VALID,918.202,VALID,0,VALID,100,VALID,0,VALID,19.9519,VALID,108,VALID,1.07395,
2004-11-04, 00:14:00,VALID,918.173,VALID,0.2,VALID,100,VALID,0,VALID,19.9516,VALID,116,VALID,1.39392,
2004-11-04, 00:15:00,VALID,918.167,VALID,0.2,VALID,100,VALID,0,VALID,19.9524,VALID,106,VALID,1.28516,
2004-11-04, 00:16:00,VALID,918.151,VALID,0,VALID,100,VALID,0.0169808,VALID,19.9623,VALID,109,VALID,0.889353,
2004-11-04, 00:17:00,VALID,918.133,VALID,0.2,VALID,100,VALID,0,VALID,19.9586,VALID,122,VALID,1.2623,
2004-11-04, 00:18:00,VALID,918.124,VALID,0.2,VALID,100,VALID,0,VALID,19.9586,VALID,73,VALID,0.924716,
2004-11-04, 00:19:00,VALID,918.113,VALID,0,VALID,100,VALID,0.0169808,VALID,19.9685,VALID,124,VALID,0.745617,
2004-11-04, 00:20:00,VALID,918.088,VALID,0.2,VALID,100,VALID,0,VALID,19.9623,VALID,120,VALID,0.440848,
2004-11-04, 00:21:00,VALID,918.064,VALID,0.2,VALID,100,VALID,0,VALID,19.9583,VALID,119,VALID,0.158249,
2004-11-04, 00:22:00,VALID,918.042,VALID,0,VALID,100,VALID,0.0339617,VALID,19.9648,VALID,127,VALID,0.187686,
2004-11-04, 00:23:00,VALID,918.021,VALID,0.2,VALID,100,VALID,0.0339617,VALID,19.9581,VALID,145,VALID,0.107558,
2004-11-04, 00:24:00,VALID,918.004,VALID,0.2,VALID,100,VALID,0,VALID,19.9747,VALID,147,VALID,0.0772372,
2004-11-04, 00:25:00,VALID,917.979,VALID,0,VALID,100,VALID,0.0169808,VALID,19.9847,VALID,155,VALID,0.220982,
2004-11-04, 00:26:00,VALID,917.972,VALID,0.2,VALID,100,VALID,0,VALID,19.9718,VALID,203,VALID,0.253089,
2004-11-04, 00:27:00,VALID,917.943,VALID,0,VALID,100,VALID,0,VALID,19.9484,VALID,249,VALID,0.907422,
2004-11-04, 00:28:00,VALID,917.929,VALID,0.2,VALID,100,VALID,0,VALID,19.9524,VALID,250,VALID,0.971799,
2004-11-04, 00:29:00,VALID,917.916,VALID,0,VALID,100,VALID,0,VALID,19.9362,VALID,258,VALID,0.860283,
2004-11-04, 00:30:00,VALID,917.905,VALID,0.2,VALID,100,VALID,-0.0169808,VALID,19.9141,VALID,263,VALID,0.746951,
2004-11-04, 00:31:00,VALID,917.882,VALID,0.2,VALID,100,VALID,-0.118866,VALID,19.8861,VALID,280,VALID,0.652071,
2004-11-04, 00:32:00,VALID,917.87,VALID,0.2,VALID,100,VALID,-0.101885,VALID,19.8928,VALID,283,VALID,0.520275,
2004-11-04, 00:33:00,VALID,917.851,VALID,0,VALID,100,VALID,-0.101885,VALID,19.9025,VALID,285,VALID,0.458854,
2004-11-04, 00:34:00,VALID,917.841,VALID,0.2,VALID,100,VALID,-0.101885,VALID,19.8796,VALID,296,VALID,1.00972,
2004-11-04, 00:35:00,VALID,917.821,VALID,0.2,VALID,100,VALID,-0.101885,VALID,19.8826,VALID,289,VALID,0.829013,
2004-11-04, 00:36:00,VALID,917.808,VALID,0,VALID,100,VALID,-0.0849042,VALID,19.8764,VALID,296,VALID,0.47923,
2004-11-04, 00:37:00,VALID,917.799,VALID,0.2,VALID,100,VALID,-0.101885,VALID,19.8729,VALID,294,VALID,0.473133,
2004-11-04, 00:38:00,VALID,917.777,VALID,0.2,VALID,100,VALID,-0.0849042,VALID,19.8597,VALID,279,VALID,0.697266,
2004-11-04, 00:39:00,VALID,917.769,VALID,0,VALID,100,VALID,-0.101885,VALID,19.8431,VALID,263,VALID,0.667039,
2004-11-04, 00:40:00,VALID,917.76,VALID,0.2,VALID,100,VALID,-0.101885,VALID,19.8471,VALID,254,VALID,0.601376,
2004-11-04, 00:41:00,VALID,917.727,VALID,0,VALID,100,VALID,-0.101885,VALID,19.8443,VALID,252,VALID,0.0932049,
2004-11-04, 00:42:00,VALID,917.703,VALID,0.2,VALID,100,VALID,-0.0849042,VALID,19.8503,VALID,252,VALID,0,
2004-11-04, 00:43:00,VALID,917.678,VALID,0,VALID,100,VALID,-0.101885,VALID,19.8567,VALID,252,VALID,0,
2004-11-04, 00:44:00,VALID,917.654,VALID,0,VALID,100,VALID,-0.101885,VALID,19.8731,VALID,252,VALID,0,
2004-11-04, 00:45:00,VALID,917.639,VALID,0.2,VALID,100,VALID,-0.0849042,VALID,19.8958,VALID,252,VALID,0,
2004-11-04, 00:46:00,VALID,917.629,VALID,0,VALID,100,VALID,0,VALID,19.898,VALID,252,VALID,0,
2004-11-04, 00:47:00,VALID,917.616,VALID,0,VALID,100,VALID,0.0169808,VALID,19.8945,VALID,252,VALID,0,
2004-11-04, 00:48:00,VALID,917.598,VALID,0.2,VALID,100,VALID,0,VALID,19.9034,VALID,256,VALID,0.163517,
2004-11-04, 00:49:00,VALID,917.59,VALID,0,VALID,100,VALID,0.0169808,VALID,19.9042,VALID,27,VALID,0.5625,
2004-11-04, 00:50:00,VALID,917.572,VALID,0,VALID,100,VALID,-0.0339617,VALID,19.8784,VALID,28,VALID,0.470846,
2004-11-04, 00:51:00,VALID,917.557,VALID,0,VALID,100,VALID,0,VALID,19.8821,VALID,28,VALID,0.534446,
2004-11-04, 00:52:00,VALID,917.538,VALID,0,VALID,100,VALID,0,VALID,19.8754,VALID,28,VALID,0.587984,
2004-11-04, 00:53:00,VALID,917.523,VALID,0,VALID,100,VALID,-0.0169808,VALID,19.8687,VALID,29,VALID,0.741642,
2004-11-04, 00:54:00,VALID,917.492,VALID,0,VALID,100,VALID,0,VALID,19.859,VALID,30,VALID,0.681734,
2004-11-04, 00:55:00,VALID,917.47,VALID,0.2,VALID,100,VALID,0,VALID,19.855,VALID,30,VALID,0.496003,
2004-11-04, 00:56:00,VALID,917.455,VALID,0,VALID,100,VALID,0.0169808,VALID,19.8493,VALID,30,VALID,0.378125,
2004-11-04, 00:57:00,VALID,917.429,VALID,0,VALID,100,VALID,0,VALID,19.8294,VALID,30,VALID,0.280382,
2004-11-04, 00:58:00,VALID,917.393,VALID,0,VALID,100,VALID,0,VALID,19.8234,VALID,30,VALID,0.311942,
2004-11-04, 00:59:00,VALID,917.371,VALID,0,VALID,100,VALID,0,VALID,19.8071,VALID,30,VALID,0.26508,
2004-11-04, 01:00:00,VALID,917.349,VALID,0,VALID,100,VALID,0,VALID,19.8041,VALID,30,VALID,0.0589658,
2004-11-04, 01:01:00,VALID,917.324,VALID,0,VALID,100,VALID,0,VALID,19.7907,VALID,30,VALID,0.0647321,
2004-11-04, 01:02:00,VALID,917.306,VALID,0,VALID,100,VALID,0,VALID,19.7971,VALID,30,VALID,0.0539931,
2004-11-04, 01:03:00,VALID,917.286,VALID,0,VALID,100,VALID,0,VALID,19.7974,VALID,30,VALID,0.30221,
2004-11-04, 01:04:00,VALID,917.284,VALID,0,VALID,100,VALID,0,VALID,19.8008,VALID,30,VALID,0.329688,
2004-11-04, 01:05:00,VALID,917.263,VALID,0,VALID,100,VALID,0,VALID,19.7974,VALID,30,VALID,0.246838,
2004-11-04, 01:06:00,VALID,917.262,VALID,0,VALID,100,VALID,-0.0169808,VALID,19.8073,VALID,30,VALID,0.201705,
2004-11-04, 01:07:00,VALID,917.251,VALID,0,VALID,100,VALID,0.0169808,VALID,19.7902,VALID,57,VALID,0.424543,
2004-11-04, 01:08:00,VALID,917.244,VALID,0,VALID,100,VALID,0,VALID,19.81,VALID,83,VALID,0.311942,
2004-11-04, 01:09:00,VALID,917.23,VALID,0,VALID,100,VALID,0,VALID,19.8036,VALID,87,VALID,0.411133,
2004-11-04, 01:10:00,VALID,917.211,VALID,0,VALID,100,VALID,0,VALID,19.81,VALID,87,VALID,0.268229,
2004-11-04, 01:11:00,VALID,917.201,VALID,0,VALID,100,VALID,0,VALID,19.8364,VALID,87,VALID,0.23418,
2004-11-04, 01:12:00,VALID,917.175,VALID,0,VALID,100,VALID,0.0169808,VALID,19.8331,VALID,87,VALID,0.270198,
2004-11-04, 01:13:00,VALID,917.146,VALID,0,VALID,100,VALID,-0.0169808,VALID,19.8364,VALID,87,VALID,0.438388,
2004-11-04, 01:14:00,VALID,917.115,VALID,0,VALID,100,VALID,0.0169808,VALID,19.8456,VALID,102,VALID,0.405134,
2004-11-04, 01:15:00,VALID,917.095,VALID,0,VALID,100,VALID,0.0169808,VALID,19.8587,VALID,155,VALID,0.848656,
2004-11-04, 01:16:00,VALID,917.063,VALID,0,VALID,100,VALID,0,VALID,19.8428,VALID,145,VALID,0.844638,
2004-11-04, 01:17:00,VALID,917.044,VALID,0.2,VALID,100,VALID,0.0169808,VALID,19.8456,VALID,136,VALID,0.596112,
2004-11-04, 01:18:00,VALID,917.016,VALID,0,VALID,100,VALID,-0.0339617,VALID,19.8557,VALID,152,VALID,0.924592,
2004-11-04, 01:19:00,VALID,916.99,VALID,0,VALID,100,VALID,0,VALID,19.8525,VALID,152,VALID,0.871911,
2004-11-04, 01:20:00,VALID,916.971,VALID,0,VALID,100,VALID,0,VALID,19.856,VALID,152,VALID,0.803925,
2004-11-04, 01:21:00,VALID,916.942,VALID,0,VALID,100,VALID,0,VALID,19.8525,VALID,134,VALID,0.601389,
2004-11-04, 01:22:00,VALID,916.922,VALID,0,VALID,100,VALID,-0.0169808,VALID,19.8463,VALID,134,VALID,0.594727,
2004-11-04, 01:23:00,VALID,916.91,VALID,0,VALID,100,VALID,0,VALID,19.8431,VALID,132,VALID,0.623397,
2004-11-04, 01:24:00,VALID,916.912,VALID,0,VALID,100,VALID,0,VALID,19.8426,VALID,133,VALID,0.55332,
2004-11-04, 01:25:00,VALID,916.906,VALID,0,VALID,100,VALID,0,VALID,19.8398,VALID,141,VALID,0.945313,
2004-11-04, 01:26:00,VALID,916.903,VALID,0,VALID,100,VALID,0,VALID,19.82,VALID,144,VALID,0.374256,
2004-11-04, 01:27:00,VALID,916.891,VALID,0,VALID,100,VALID,0.0169808,VALID,19.81,VALID,130,VALID,0.499599,
2004-11-04, 01:28:00,VALID,916.867,VALID,0,VALID,100,VALID,0,VALID,19.8167,VALID,90,VALID,0.598437,
2004-11-04, 01:29:00,VALID,916.836,VALID,0,VALID,100,VALID,-0.0169808,VALID,19.8175,VALID,112,VALID,0.507457,
2004-11-04, 01:30:00,VALID,916.826,VALID,0,VALID,100,VALID,0,VALID,19.8038,VALID,135,VALID,0.414807,
2004-11-04, 01:31:00,VALID,916.795,VALID,0,VALID,100,VALID,0,VALID,19.8269,VALID,188,VALID,0.308966,
2004-11-04, 01:32:00,VALID,916.772,VALID,0,VALID,100,VALID,0,VALID,19.8202,VALID,223,VALID,0.0351563,
2004-11-04, 01:33:00,VALID,916.755,VALID,0.2,VALID,100,VALID,0,VALID,19.8103,VALID,223,VALID,0,
2004-11-04, 01:34:00,VALID,916.739,VALID,0,VALID,100,VALID,0,VALID,19.8076,VALID,222,VALID,0.176389,
2004-11-04, 01:35:00,VALID,916.725,VALID,0,VALID,100,VALID,0,VALID,19.8038,VALID,222,VALID,0.0384909,
2004-11-04, 01:36:00,VALID,916.708,VALID,0,VALID,100,VALID,0,VALID,19.8003,VALID,222,VALID,0.0181108,
2004-11-04, 01:37:00,VALID,916.679,VALID,0,VALID,100,VALID,0.0169808,VALID,19.8008,VALID,222,VALID,0,
2004-11-04, 01:38:00,VALID,916.669,VALID,0,VALID,100,VALID,0.0339617,VALID,19.7941,VALID,192,VALID,0.281822,
2004-11-04, 01:39:00,VALID,916.659,VALID,0,VALID,100,VALID,-0.0339617,VALID,19.7882,VALID,170,VALID,0.470385,
2004-11-04, 01:40:00,VALID,916.635,VALID,0,VALID,100,VALID,0,VALID,19.7718,VALID,132,VALID,0.4133,
2004-11-04, 01:41:00,VALID,916.636,VALID,0,VALID,100,VALID,0,VALID,19.7554,VALID,145,VALID,0.960938,
2004-11-04, 01:42:00,VALID,916.642,VALID,0,VALID,100,VALID,0,VALID,19.7427,VALID,148,VALID,1.22715,
2004-11-04, 01:43:00,VALID,916.629,VALID,0,VALID,100,VALID,0,VALID,19.7233,VALID,136,VALID,1.33031,
2004-11-04, 01:44:00,VALID,916.627,VALID,0,VALID,100,VALID,0.0169808,VALID,19.7201,VALID,132,VALID,1.33628,
2004-11-04, 01:45:00,VALID,916.622,VALID,0,VALID,100,VALID,0,VALID,19.7139,VALID,130,VALID,1.23565,
2004-11-04, 01:46:00,VALID,916.61,VALID,0,VALID,100,VALID,0,VALID,19.7144,VALID,128,VALID,1.54222,
2004-11-04, 01:47:00,VALID,916.606,VALID,0,VALID,100,VALID,0,VALID,19.691,VALID,124,VALID,1.22187,
2004-11-04, 01:48:00,VALID,916.591,VALID,0,VALID,100,VALID,-0.0509425,VALID,19.6915,VALID,144,VALID,1.32351,
2004-11-04, 01:49:00,VALID,916.574,VALID,0,VALID,100,VALID,-0.0169808,VALID,19.6719,VALID,153,VALID,1.00911,
2004-11-04, 01:50:00,VALID,916.56,VALID,0,VALID,100,VALID,-0.0169808,VALID,19.6597,VALID,148,VALID,1.78976,
2004-11-04, 01:51:00,VALID,916.547,VALID,0,VALID,100,VALID,-0.0339617,VALID,19.6235,VALID,127,VALID,1.30996,
2004-11-04, 01:52:00,VALID,916.524,VALID,0,VALID,100,VALID,0,VALID,19.6076,VALID,143,VALID,1.34647,
2004-11-04, 01:53:00,VALID,916.508,VALID,0,VALID,100,VALID,-0.0169808,VALID,19.6046,VALID,152,VALID,1.19401,
2004-11-04, 01:54:00,VALID,916.474,VALID,0,VALID,100,VALID,0,VALID,19.6071,VALID,165,VALID,0.68388,
2004-11-04, 01:55:00,VALID,916.466,VALID,0,VALID,100,VALID,0,VALID,19.614,VALID,141,VALID,0.60434,
2004-11-04, 01:56:00,VALID,916.443,VALID,0,VALID,100,VALID,0,VALID,19.6046,VALID,166,VALID,1.02681,
2004-11-04, 01:57:00,VALID,916.43,VALID,0,VALID,100,VALID,0,VALID,19.6043,VALID,156,VALID,1.01239,
2004-11-04, 01:58:00,VALID,916.431,VALID,0,VALID,100,VALID,0,VALID,19.5942,VALID,151,VALID,1.24734,
2004-11-04, 01:59:00,VALID,916.43,VALID,0,VALID,100,VALID,-0.0339617,VALID,19.611,VALID,147,VALID,0.926235,
2004-11-04, 02:00:00,VALID,916.415,VALID,0,VALID,100,VALID,0,VALID,19.6145,VALID,146,VALID,1.06743,
2004-11-04, 02:01:00,VALID,916.409,VALID,0,VALID,100,VALID,-0.0169808,VALID,19.5976,VALID,138,VALID,1.05712,
2004-11-04, 02:02:00,VALID,916.382,VALID,0,VALID,100,VALID,-0.0169808,VALID,19.6106,VALID,141,VALID,1.06886,
2004-11-04, 02:03:00,VALID,916.351,VALID,0,VALID,100,VALID,-0.0169808,VALID,19.6212,VALID,140,VALID,0.955256,
2004-11-04, 02:04:00,VALID,916.333,VALID,0,VALID,100,VALID,-0.0169808,VALID,19.5976,VALID,151,VALID,1.16746,
2004-11-04, 02:05:00,VALID,916.294,VALID,0,VALID,100,VALID,-0.0169808,VALID,19.5845,VALID,142,VALID,1.24645,
2004-11-04, 02:06:00,VALID,916.275,VALID,0,VALID,100,VALID,0,VALID,19.5917,VALID,156,VALID,1.1857,
2004-11-04, 02:07:00,VALID,916.262,VALID,0,VALID,100,VALID,0,VALID,19.5748,VALID,145,VALID,1.08994,
2004-11-04, 02:08:00,VALID,916.268,VALID,0,VALID,100,VALID,0,VALID,19.581,VALID,136,VALID,1.59201,
2004-11-04, 02:09:00,VALID,916.253,VALID,0,VALID,100,VALID,0,VALID,19.6011,VALID,137,VALID,1.3324,
2004-11-04, 02:10:00,VALID,916.244,VALID,0,VALID,100,VALID,0,VALID,19.6173,VALID,137,VALID,1.25229,
2004-11-04, 02:11:00,VALID,916.248,VALID,0,VALID,100,VALID,0,VALID,19.6101,VALID,127,VALID,1.55755,
2004-11-04, 02:12:00,VALID,916.24,VALID,0,VALID,100,VALID,-0.0169808,VALID,19.6202,VALID,138,VALID,1.27805,
2004-11-04, 02:13:00,VALID,916.24,VALID,0,VALID,100,VALID,0,VALID,19.6106,VALID,122,VALID,1.27282,
2004-11-04, 02:14:00,VALID,916.239,VALID,0,VALID,100,VALID,0,VALID,19.6043,VALID,136,VALID,1.63377,
2004-11-04, 02:15:00,VALID,916.256,VALID,0,VALID,100,VALID,0,VALID,19.6108,VALID,134,VALID,1.54149,
2004-11-04, 02:16:00,VALID,916.265,VALID,0,VALID,100,VALID,0,VALID,19.6106,VALID,128,VALID,1.26693,
2004-11-04, 02:17:00,VALID,916.269,VALID,0,VALID,100,VALID,0.0169808,VALID,19.5912,VALID,121,VALID,1.19331,
2004-11-04, 02:18:00,VALID,916.28,VALID,0,VALID,100,VALID,0.0169808,VALID,19.5815,VALID,117,VALID,1.29154,
2004-11-04, 02:19:00,VALID,916.284,VALID,0,VALID,100,VALID,-0.0169808,VALID,19.5718,VALID,117,VALID,1.5041,
2004-11-04, 02:20:00,VALID,916.269,VALID,0,VALID,100,VALID,0,VALID,19.5522,VALID,116,VALID,1.23207,
2004-11-04, 02:21:00,VALID,916.261,VALID,0,VALID,100,VALID,0.0169808,VALID,19.5457,VALID,110,VALID,1.21261,
2004-11-04, 02:22:00,VALID,916.252,VALID,0,VALID,100,VALID,0,VALID,19.5462,VALID,110,VALID,1.40476,
2004-11-04, 02:23:00,VALID,916.244,VALID,0,VALID,100,VALID,0,VALID,19.5363,VALID,112,VALID,1.17854,
2004-11-04, 02:24:00,VALID,916.25,VALID,0,VALID,100,VALID,0,VALID,19.5234,VALID,104,VALID,1.26918,
2004-11-04, 02:25:00,VALID,916.239,VALID,0,VALID,100,VALID,0,VALID,19.5266,VALID,105,VALID,1.4057,
2004-11-04, 02:26:00,VALID,916.233,VALID,0,VALID,100,VALID,0,VALID,19.5306,VALID,108,VALID,1.05859,
2004-11-04, 02:27:00,VALID,916.235,VALID,0,VALID,100,VALID,0,VALID,19.5296,VALID,102,VALID,1.14621,
2004-11-04, 02:28:00,VALID,916.236,VALID,0,VALID,100,VALID,0.0339617,VALID,19.54,VALID,97,VALID,0.854403,
2004-11-04, 02:29:00,VALID,916.229,VALID,0,VALID,100,VALID,0.0169808,VALID,19.5363,VALID,128,VALID,0.937128,
2004-11-04, 02:30:00,VALID,916.217,VALID,0,VALID,100,VALID,0,VALID,19.533,VALID,136,VALID,1.23247,
2004-11-04, 02:31:00,VALID,916.214,VALID,0,VALID,100,VALID,-0.101885,VALID,19.531,VALID,138,VALID,1.27274,
2004-11-04, 02:32:00,VALID,916.202,VALID,0,VALID,100,VALID,-0.101885,VALID,19.5343,VALID,138,VALID,1.21931,
2004-11-04, 02:33:00,VALID,916.177,VALID,0,VALID,100,VALID,-0.0849042,VALID,19.531,VALID,142,VALID,1.11808,
2004-11-04, 02:34:00,VALID,916.147,VALID,0,VALID,100,VALID,-0.118866,VALID,19.541,VALID,139,VALID,1.22409,
2004-11-04, 02:35:00,VALID,916.123,VALID,0,VALID,100,VALID,-0.101885,VALID,19.544,VALID,142,VALID,1.42604,
2004-11-04, 02:36:00,VALID,916.096,VALID,0,VALID,100,VALID,-0.101885,VALID,19.5472,VALID,137,VALID,1.98514,
2004-11-04, 02:37:00,VALID,916.094,VALID,0,VALID,100,VALID,-0.101885,VALID,19.541,VALID,139,VALID,1.17522,
2004-11-04, 02:38:00,VALID,916.076,VALID,0,VALID,100,VALID,-0.101885,VALID,19.5345,VALID,140,VALID,1.44295,
2004-11-04, 02:39:00,VALID,916.055,VALID,0,VALID,100,VALID,-0.0679233,VALID,19.5246,VALID,139,VALID,1.3247,
2004-11-04, 02:40:00,VALID,916.043,VALID,0,VALID,100,VALID,-0.101885,VALID,19.5246,VALID,135,VALID,1.23361,
2004-11-04, 02:41:00,VALID,916.021,VALID,0,VALID,100,VALID,-0.101885,VALID,19.5248,VALID,135,VALID,1.29415,
2004-11-04, 02:42:00,VALID,916,VALID,0,VALID,100,VALID,-0.101885,VALID,19.5216,VALID,127,VALID,1.25999,
2004-11-04, 02:43:00,VALID,915.993,VALID,0,VALID,100,VALID,-0.101885,VALID,19.5189,VALID,131,VALID,1.36812,
2004-11-04, 02:44:00,VALID,915.971,VALID,0,VALID,100,VALID,-0.101885,VALID,19.5057,VALID,138,VALID,1.6379,
2004-11-04, 02:45:00,VALID,915.96,VALID,0,VALID,100,VALID,-0.101885,VALID,19.5055,VALID,140,VALID,1.55451,
2004-11-04, 02:46:00,VALID,915.962,VALID,0,VALID,100,VALID,0,VALID,19.4978,VALID,129,VALID,1.50521,
2004-11-04, 02:47:00,VALID,915.974,VALID,0,VALID,100,VALID,0.0509425,VALID,19.4911,VALID,125,VALID,1.17914,
2004-11-04, 02:48:00,VALID,915.982,VALID,0,VALID,100,VALID,0.0169808,VALID,19.4846,VALID,113,VALID,1.50019,
2004-11-04, 02:49:00,VALID,915.983,VALID,0,VALID,100,VALID,0,VALID,19.4784,VALID,101,VALID,1.17262,
2004-11-04, 02:50:00,VALID,915.976,VALID,0,VALID,100,VALID,0,VALID,19.4622,VALID,102,VALID,1.09139,
2004-11-04, 02:51:00,VALID,915.976,VALID,0,VALID,100,VALID,0,VALID,19.4526,VALID,93,VALID,1.0103,
2004-11-04, 02:52:00,VALID,915.969,VALID,0,VALID,100,VALID,0.0339617,VALID,19.4392,VALID,90,VALID,0.943004,
2004-11-04, 02:53:00,VALID,915.971,VALID,0,VALID,100,VALID,-0.0169808,VALID,19.4367,VALID,76,VALID,0.768229,
2004-11-04, 02:54:00,VALID,915.957,VALID,0,VALID,100,VALID,-0.0169808,VALID,19.4168,VALID,74,VALID,0.931362,
2004-11-04, 02:55:00,VALID,915.971,VALID,0,VALID,100,VALID,0,VALID,19.4009,VALID,62,VALID,1.12043,
2004-11-04, 02:56:00,VALID,915.963,VALID,0,VALID,100,VALID,0,VALID,19.3815,VALID,63,VALID,0.99673,
2004-11-04, 02:57:00,VALID,915.96,VALID,0,VALID,100,VALID,0,VALID,19.3557,VALID,71,VALID,0.711825,
2004-11-04, 02:58:00,VALID,915.958,VALID,0,VALID,100,VALID,0,VALID,19.343,VALID,86,VALID,1.00039,
2004-11-04, 02:59:00,VALID,915.966,VALID,0,VALID,100,VALID,0.0339617,VALID,19.3651,VALID,87,VALID,1.24312,
2004-11-04, 03:00:00,VALID,915.953,VALID,0,VALID,100,VALID,0,VALID,19.3656,VALID,120,VALID,1.01152,
2004-11-04, 03:01:00,VALID,915.951,VALID,0,VALID,100,VALID,0,VALID,19.3723,VALID,106,VALID,1.06343,
2004-11-04, 03:02:00,VALID,915.956,VALID,0,VALID,100,VALID,0.0169808,VALID,19.3751,VALID,73,VALID,1.20694,
2004-11-04, 03:03:00,VALID,915.953,VALID,0,VALID,100,VALID,0,VALID,19.3684,VALID,87,VALID,0.814757,
2004-11-04, 03:04:00,VALID,915.952,VALID,0,VALID,100,VALID,0.0169808,VALID,19.3552,VALID,92,VALID,0.784375,
2004-11-04, 03:05:00,VALID,915.946,VALID,0,VALID,100,VALID,0,VALID,19.3882,VALID,110,VALID,1.11022,
2004-11-04, 03:06:00,VALID,915.952,VALID,0,VALID,100,VALID,0.0169808,VALID,19.3847,VALID,101,VALID,0.933408,
2004-11-04, 03:07:00,VALID,915.944,VALID,0,VALID,100,VALID,0.0169808,VALID,19.3947,VALID,107,VALID,0.537997,
2004-11-04, 03:08:00,VALID,915.942,VALID,0,VALID,100,VALID,-0.0339617,VALID,19.3818,VALID,98,VALID,0.607515,
2004-11-04, 03:09:00,VALID,915.928,VALID,0,VALID,100,VALID,0.0339617,VALID,19.3686,VALID,105,VALID,0.66311,
2004-11-04, 03:10:00,VALID,915.924,VALID,0,VALID,100,VALID,0,VALID,19.3621,VALID,107,VALID,0.836571,
2004-11-04, 03:11:00,VALID,915.895,VALID,0,VALID,100,VALID,0,VALID,19.352,VALID,112,VALID,0.46804,
2004-11-04, 03:12:00,VALID,915.881,VALID,0,VALID,100,VALID,0,VALID,19.3497,VALID,132,VALID,0.431974,
2004-11-04, 03:13:00,VALID,915.876,VALID,0,VALID,100,VALID,0,VALID,19.3169,VALID,129,VALID,0.478693,
2004-11-04, 03:14:00,VALID,915.856,VALID,0,VALID,100,VALID,0.0169808,VALID,19.3038,VALID,125,VALID,0.885653,
2004-11-04, 03:15:00,VALID,915.851,VALID,0,VALID,100,VALID,0,VALID,19.3202,VALID,161,VALID,0.292878,
2004-11-04, 03:16:00,VALID,915.844,VALID,0,VALID,100,VALID,-0.0169808,VALID,19.2941,VALID,161,VALID,0.0148437,
2004-11-04, 03:17:00,VALID,915.825,VALID,0,VALID,100,VALID,-0.0169808,VALID,19.2687,VALID,160,VALID,0.323396,
2004-11-04, 03:18:00,VALID,915.81,VALID,0,VALID,100,VALID,-0.0169808,VALID,19.2556,VALID,157,VALID,0.406944,
2004-11-04, 03:19:00,VALID,915.802,VALID,0,VALID,100,VALID,-0.0339617,VALID,19.2526,VALID,161,VALID,0.316692,
2004-11-04, 03:20:00,VALID,915.802,VALID,0,VALID,100,VALID,-0.0169808,VALID,19.2563,VALID,169,VALID,0.0181021,
2004-11-04, 03:21:00,VALID,915.794,VALID,0,VALID,100,VALID,-0.0169808,VALID,19.2402,VALID,169,VALID,0,
2004-11-04, 03:22:00,VALID,915.797,VALID,0,VALID,100,VALID,0,VALID,19.2201,VALID,169,VALID,0.000190549,
2004-11-04, 03:23:00,VALID,915.803,VALID,0,VALID,100,VALID,-0.0169808,VALID,19.2138,VALID,169,VALID,0.0214844,
2004-11-04, 03:24:00,VALID,915.8,VALID,0,VALID,100,VALID,-0.0169808,VALID,19.2106,VALID,169,VALID,0,
2004-11-04, 03:25:00,VALID,915.804,VALID,0,VALID,100,VALID,0,VALID,19.1912,VALID,169,VALID,0,
2004-11-04, 03:26:00,VALID,915.815,VALID,0,VALID,100,VALID,-0.0339617,VALID,19.1947,VALID,169,VALID,0.168713,
2004-11-04, 03:27:00,VALID,915.816,VALID,0,VALID,100,VALID,-0.0169808,VALID,19.2012,VALID,168,VALID,0.00166223,
2004-11-04, 03:28:00,VALID,915.825,VALID,0,VALID,100,VALID,0,VALID,19.1845,VALID,168,VALID,0,
2004-11-04, 03:29:00,VALID,915.817,VALID,0,VALID,100,VALID,-0.0169808,VALID,19.1751,VALID,168,VALID,0,
2004-11-04, 03:30:00,VALID,915.803,VALID,0,VALID,100,VALID,-0.0169808,VALID,19.1823,VALID,168,VALID,0.00106534,
2004-11-04, 03:31:00,VALID,915.792,VALID,0,VALID,100,VALID,-0.0169808,VALID,19.159,VALID,168,VALID,0,
2004-11-04, 03:32:00,VALID,915.801,VALID,0,VALID,100,VALID,0,VALID,19.1297,VALID,168,VALID,0.110465,
2004-11-04, 03:33:00,VALID,915.798,VALID,0,VALID,100,VALID,-0.0339617,VALID,19.1401,VALID,168,VALID,0.139737,
2004-11-04, 03:34:00,VALID,915.806,VALID,0,VALID,100,VALID,0,VALID,19.114,VALID,168,VALID,0.345385,
2004-11-04, 03:35:00,VALID,915.817,VALID,0,VALID,100,VALID,0,VALID,19.0623,VALID,53,VALID,0.737674,
2004-11-04, 03:36:00,VALID,915.829,VALID,0,VALID,100,VALID,0,VALID,19.0395,VALID,16,VALID,0.806891,
2004-11-04, 03:37:00,VALID,915.814,VALID,0,VALID,100,VALID,-0.0169808,VALID,19.0492,VALID,16,VALID,0.677083,
2004-11-04, 03:38:00,VALID,915.813,VALID,0,VALID,100,VALID,0,VALID,19.0397,VALID,14,VALID,0.854167,
2004-11-04, 03:39:00,VALID,915.807,VALID,0,VALID,100,VALID,0,VALID,19.0487,VALID,13,VALID,0.902344,
2004-11-04, 03:40:00,VALID,915.794,VALID,0,VALID,100,VALID,-0.0169808,VALID,19.0455,VALID,17,VALID,0.892721,
2004-11-04, 03:41:00,VALID,915.792,VALID,0,VALID,100,VALID,0,VALID,19.0586,VALID,18,VALID,0.744496,
2004-11-04, 03:42:00,VALID,915.775,VALID,0,VALID,100,VALID,0,VALID,19.0492,VALID,38,VALID,0.794567,
2004-11-04, 03:43:00,VALID,915.779,VALID,0,VALID,100,VALID,0,VALID,19.0688,VALID,44,VALID,0.650856,
2004-11-04, 03:44:00,VALID,915.759,VALID,0,VALID,100,VALID,-0.0169808,VALID,19.114,VALID,53,VALID,0.680099,
2004-11-04, 03:45:00,VALID,915.741,VALID,0,VALID,100,VALID,0,VALID,19.156,VALID,68,VALID,0.695313,